Weather reports worldwide

Advertisment
Norderney, Germany (10113): temperature & dewpoint: 29.06.2020 12:00:00 - 05.07.2020 12:00:00 (CEST)Norderney, Germany (10113): temperature 5cm & temperature -5cm: 29.06.2020 12:00:00 - 05.07.2020 12:00:00 (CEST)Norderney, Germany (10113): temperature -20cm & temperature -100cm: 29.06.2020 12:00:00 - 05.07.2020 12:00:00 (CEST)Norderney, Germany (10113): wind speed & gusts: 29.06.2020 12:00:00 - 05.07.2020 12:00:00 (CEST)Norderney, Germany (10113): wind direction: 29.06.2020 12:00:00 - 05.07.2020 12:00:00 (CEST)Norderney, Germany (10113): reduced air pressure: 29.06.2020 12:00:00 - 05.07.2020 12:00:00 (CEST)Norderney, Germany (10113): visibility: 29.06.2020 12:00:00 - 05.07.2020 12:00:00 (CEST)Norderney, Germany (10113): sunshine duration: 29.06.2020 12:00:00 - 05.07.2020 12:00:00 (CEST)Norderney, Germany (10113): precipitation: 29.06.2020 12:00:00 - 05.07.2020 12:00:00 (CEST)
Date & Time tt [°C] td [°C] tt 5cm [°C] tt -5cm [°C] tt -20cm [°C] tt -100cm [°C] ff [km/h] ff [kn] fx [km/h] fx [kn] dd ppp [hPa] vv [km] sd [min] rr [mm]
05.07.2020 12:00:00 18,2 16,3 17,7 18,7 17,4 17,3 34 19 59 32 SW 1004,7 20 5 0,0
05.07.2020 11:00:00 17,4 16,3 17,2 17,6 17,3 17,3 36 19 61 33 SW 1004,6 37 0 0,1
05.07.2020 10:00:00 16,8 16,2 16,5 17,2 17,3 17,3 40 22 68 37 SW 1004,4 3,2 0 0,1
05.07.2020 09:00:00 16,9 15,9 16,2 17,0 17,4 17,3 39 21 65 35 SW 1004,1 5 0 0,6
05.07.2020 08:00:00 17,0 15,8 16,3 17,0 17,4 17,3 39 21 67 36 SW 1004,0 8 0 0,0
05.07.2020 07:00:00 17,4 15,8 16,7 17,1 17,5 17,3 37 20 58 31 SW 1004,2 23 0 0,0
05.07.2020 06:00:00 17,3 16,2 16,6 17,1 17,5 17,3 33 18 52 28 SW 1004,5 19 0 0,0
05.07.2020 05:00:00 17,1 16,7 16,7 17,2 17,6 17,3 31 17 51 28 SW 1005,2 16 0 0,1
05.07.2020 04:00:00 17,1 16,7 16,7 17,2 17,6 17,3 27 15 50 27 SW 1005,5 3,2 0 0,0
05.07.2020 03:00:00 17,4 16,7 16,9 17,3 17,6 17,4 27 15 44 24 SW 1006,2 7 0 0,0
05.07.2020 02:00:00 17,4 16,8 16,9 17,3 17,7 17,4 29 15 42 23 SW 1006,9 21 0 0,0
05.07.2020 01:00:00 17,4 16,8 16,9 17,4 17,8 17,4 24 13 46 25 SW 1007,5 4,2 0 0,0
05.07.2020 00:00:00 17,3 16,7 16,8 17,4 17,8 17,4 24 13 41 22 SW 1007,8 12 0 0,0
04.07.2020 23:00:00 17,4 16,6 16,8 17,5 17,9 17,4 26 14 39 21 SW 1008,1 16 0 0,1
04.07.2020 22:00:00 17,4 16,8 16,8 17,7 18,0 17,4 23 12 40 22 SW 1008,4 18 0 0,1
04.07.2020 21:00:00 17,4 16,6 16,8 17,8 18,0 17,4 24 13 47 25 SW 1008,7 13 0 0,1
04.07.2020 20:00:00 17,6 16,3 17,0 18,2 18,0 17,4 28 15 46 25 SW 1009,0 21 0 0,0
04.07.2020 19:00:00 17,8 16,4 17,4 18,3 18,0 17,4 29 16 45 25 SW 1009,1 39 0 0,1
04.07.2020 18:00:00 17,1 16,7 16,9 18,1 18,0 17,4 28 15 50 27 SW 1009,5 3,3 0 1,0
04.07.2020 17:00:00 16,9 16,5 16,7 18,2 18,0 17,4 29 16 51 27 SW 1009,4 2,6 0 0,4
04.07.2020 16:00:00 17,0 16,3 16,8 18,4 17,9 17,4 34 19 56 30 SW 1009,4 10 0 0,3
04.07.2020 15:00:00 17,0 16,2 16,7 18,6 17,8 17,4 34 19 57 31 SW 1009,4 2,8 0 0,0
04.07.2020 14:00:00 17,1 15,9 16,8 18,2 17,7 17,4 35 19 56 30 SW 1009,4 29 0 0,1
04.07.2020 13:00:00 16,5 15,9 16,4 18,1 17,6 17,4 31 17 54 29 SW 1009,5 2,8 0 0,1
04.07.2020 12:00:00 16,6 15,0 16,4 17,8 17,5 17,4 29 15 54 29 SSW 1009,2 9 0 0,0
04.07.2020 11:00:00 15,9 14,5 15,9 17,0 17,5 17,4 31 17 52 28 SSW 1009,5 8 0 0,0
04.07.2020 10:00:00 15,6 14,3 15,1 16,8 17,6 17,4 32 18 51 27 SSW 1009,7 10 0 0,0
04.07.2020 09:00:00 15,1 14,4 14,8 16,7 17,6 17,4 31 17 50 27 SSW 1010,0 3,4 0 0,0
04.07.2020 08:00:00 15,4 14,8 15,0 16,7 17,8 17,4 31 17 52 28 SW 1010,1 6 0 0,0
04.07.2020 07:00:00 15,3 13,7 14,9 16,8 17,9 17,4 34 18 52 28 SW 1010,3 6 0 0,0
04.07.2020 06:00:00 15,6 13,8 15,0 16,9 18,1 17,4 32 17 55 30 SW 1010,6 14 0 0,0
04.07.2020 05:00:00 15,6 13,7 15,5 17,0 18,2 17,4 33 18 55 30 SW 1010,8 33 0 0,0
04.07.2020 04:00:00 15,7 14,2 15,1 17,3 18,4 17,4 30 16 60 33 SW 1011,0 16 0 0,0
04.07.2020 03:00:00 16,7 12,8 16,4 17,5 18,5 17,4 33 18 53 29 SW 1011,1 28 0 0,0
04.07.2020 02:00:00 16,8 12,7 16,6 17,7 18,7 17,4 32 17 55 30 SW 1011,4 31 0 0,0
04.07.2020 01:00:00 17,0 12,7 16,7 17,9 18,9 17,4 32 17 51 27 SW 1011,9 33 0 0,0
04.07.2020 00:00:00 17,2 12,5 16,9 18,2 19,1 17,4 31 17 53 28 SW 1012,6 33 0 0,0
03.07.2020 23:00:00 17,4 12,3 17,1 18,5 19,3 17,4 30 16 50 27 SW 1012,9 42 0 0,0
03.07.2020 22:00:00 17,5 12,2 17,1 18,8 19,6 17,4 31 17 53 28 SW 1013,1 36 0 0,0
03.07.2020 21:00:00 17,6 11,9 17,4 19,4 19,8 17,4 28 15 50 27 WSW 1013,4 34 0 0,0
03.07.2020 20:00:00 17,4 11,8 17,4 20,0 19,9 17,4 29 16 56 30 SW 1013,5 33 0 0,0
03.07.2020 19:00:00 17,6 12,0 18,0 20,7 20,0 17,5 29 15 53 29 WSW 1013,7 30 0 0,0
03.07.2020 18:00:00 17,8 11,6 18,0 21,5 20,0 17,5 35 19 54 29 WSW 1013,8 34 0 0,0
03.07.2020 17:00:00 19,2 12,2 20,0 22,1 19,9 17,5 27 15 42 23 SW 1013,4 57 1 0,0
03.07.2020 16:00:00 19,0 12,3 20,2 22,1 19,7 17,5 24 13 44 24 SW 1013,7 47 0 0,0
03.07.2020 15:00:00 18,2 12,8 18,5 22,6 19,5 17,5 23 12 42 23 SW 1014,0 55 0 0,0
03.07.2020 14:00:00 18,4 12,9 21,7 22,8 19,0 17,5 20 11 31 17 WSW 1014,5 54 0 0,0
03.07.2020 13:00:00 18,8 13,0 22,5 22,7 18,3 17,5 19 10 34 19 WSW 1014,5 61 43 0,0
03.07.2020 12:00:00 18,1 13,3 22,5 20,6 17,9 17,5 17 9 35 19 W 1014,4 59 25 0,0
03.07.2020 11:00:00 16,5 12,8 17,2 19,8 17,5 17,5 19 10 34 18 SW 1014,5 49 28 0,0
03.07.2020 10:00:00 16,6 12,4 20,3 18,8 17,2 17,5 20 11 33 18 SW 1014,1 47 43 0,0
03.07.2020 09:00:00 15,7 13,0 16,2 16,8 17,1 17,5 18 10 28 15 SW 1014,1 53 8 0,0
03.07.2020 08:00:00 15,2 13,6 15,7 16,2 17,1 17,5 10 5 17 9 S 1013,8 41 6 0,0
03.07.2020 07:00:00 14,5 12,6 14,6 15,7 17,2 17,5 11 6 19 10 SSE 1013,7 56 1 0,0
03.07.2020 06:00:00 14,6 12,1 14,1 15,7 17,4 17,5 6 3 9 5 SSE 1013,5 59 0 0,0
03.07.2020 05:00:00 14,1 11,7 13,5 15,7 17,6 17,5 5 3 9 5 ESE 1013,2 54 0 0,0
03.07.2020 04:00:00 14,7 11,4 13,6 15,8 17,9 17,5 10 5 14 7 N 1013,1 52 0 0,0
03.07.2020 03:00:00 14,6 11,5 13,7 16,2 18,1 17,5 11 6 23 12 N 1013,2 54 0 0,0
03.07.2020 02:00:00 14,5 13,1 13,9 16,6 18,4 17,5 16 9 26 14 NNE 1012,9 37 0 0,1
03.07.2020 01:00:00 14,9 13,7 14,3 16,9 18,6 17,5 23 12 29 16 N 1012,5 25 0 0,2
03.07.2020 00:00:00 15,4 13,4 15,1 17,1 18,9 17,5 10 6 13 7 NNE 1012,0 39 0 0,0
02.07.2020 23:00:00 15,4 12,7 14,1 17,5 19,3 17,5 5 3 11 6 NW 1012,0 45 0 0,0
02.07.2020 22:00:00 15,5 13,2 14,3 18,2 19,6 17,5 10 5 20 11 N 1011,5 30 2 0,0
02.07.2020 21:00:00 15,8 13,3 15,6 19,3 19,9 17,5 17 9 29 16 N 1011,0 13 15 0,0
02.07.2020 20:00:00 16,6 13,9 16,9 20,3 20,0 17,5 24 13 37 20 NNW 1010,4 18 46 0,0
02.07.2020 19:00:00 17,8 14,6 18,8 21,0 20,0 17,5 22 12 37 20 W 1010,0 24 35 0,0
02.07.2020 18:00:00 17,5 14,5 19,3 21,2 19,9 17,5 5 3 15 8 NE 1009,9 26 5 0,0
02.07.2020 17:00:00 17,0 14,6 17,7 21,1 19,9 17,5 10 5 16 9 NE 1009,8 20 0 0,0
02.07.2020 16:00:00 16,3 14,3 16,6 21,4 19,9 17,5 10 5 18 10 E 1009,8 40 0 0,2
02.07.2020 15:00:00 15,9 14,2 16,0 21,6 19,9 17,5 11 6 17 9 ENE 1009,6 10 0 1,6
02.07.2020 14:00:00 16,7 13,4 19,0 23,2 19,5 17,5 13 7 16 9 NNE 1009,1 32 3 0,0
02.07.2020 13:00:00 16,8 13,2 21,1 23,2 19,0 17,5 10 5 13 7 NNE 1009,0 34 12 0,0
02.07.2020 12:00:00 17,4 13,5 25,7 22,8 18,3 17,6 9 5 13 7 N 1008,8 50 44 0,0
02.07.2020 11:00:00 17,1 12,5 23,6 20,7 17,8 17,6 8 4 13 7 NW 1008,6 24 17 0,0
02.07.2020 10:00:00 17,0 12,4 20,8 19,3 17,4 17,6 10 5 15 8 WNW 1008,3 22 39 0,0
02.07.2020 09:00:00 16,7 12,2 18,0 17,5 17,3 17,6 9 5 14 8 W 1007,9 39 0 0,0
02.07.2020 08:00:00 16,2 11,8 17,0 16,5 17,3 17,6 10 6 23 12 WNW 1007,6 32 1 0,0
02.07.2020 07:00:00 16,0 12,6 16,0 16,0 17,4 17,6 17 9 24 13 WNW 1007,3 18 0 0,0
02.07.2020 06:00:00 15,9 12,4 15,4 15,9 17,6 17,6 18 10 26 14 WNW 1006,9 23 0 0,0
02.07.2020 05:00:00 15,8 13,0 14,6 16,0 17,8 17,6 18 10 24 13 WNW 1006,5 22 0 0,0
02.07.2020 04:00:00 15,9 12,6 15,2 16,3 18,0 17,6 18 10 26 14 WNW 1006,5 38 0 0,0
02.07.2020 03:00:00 16,0 12,8 15,4 16,6 18,3 17,6 16 8 25 14 W 1006,6 36 0 0,0
02.07.2020 02:00:00 15,9 13,1 15,2 16,8 18,5 17,6 19 10 35 19 W 1006,5 34 0 0,0
02.07.2020 01:00:00 16,2 13,6 15,9 17,2 18,8 17,6 27 14 40 22 W 1006,3 28 0 0,0
02.07.2020 00:00:00 16,4 14,0 16,1 17,6 19,1 17,6 29 15 49 26 W 1006,0 21 0 0,0
01.07.2020 23:00:00 16,9 14,0 16,5 18,0 19,4 17,6 32 17 46 25 W 1005,5 26 0 0,0
01.07.2020 22:00:00 17,2 13,3 16,2 18,6 19,8 17,7 30 16 51 28 W 1005,2 32 4 0,0
01.07.2020 21:00:00 16,9 14,0 16,1 19,4 20,1 17,7 29 16 44 24 W 1005,0 25 0 0,4
01.07.2020 20:00:00 16,8 14,6 17,2 20,7 20,3 17,7 29 15 46 25 W 1004,8 20 0 0,0
01.07.2020 19:00:00 17,5 14,1 18,5 21,8 20,4 17,7 30 16 42 23 W 1004,4 26 1 0,0
01.07.2020 18:00:00 18,0 15,1 19,0 22,9 20,3 17,7 29 15 39 21 W 1003,9 21 5 0,0
01.07.2020 17:00:00 18,7 15,2 20,9 23,8 19,9 17,8 27 15 40 22 W 1003,7 21 40 0,0
01.07.2020 16:00:00 19,6 15,9 22,2 23,7 19,5 17,8 30 16 40 21 W 1003,3 29 39 0,0
01.07.2020 15:00:00 20,1 15,4 24,2 23,3 19,0 17,8 24 13 40 21 W 1003,3 42 42 0,0
01.07.2020 14:00:00 19,6 16,1 22,6 22,9 18,5 17,8 23 13 40 22 WSW 1003,2 26 32 0,0
01.07.2020 13:00:00 19,9 15,4 22,2 22,6 17,8 17,8 21 12 33 18 SSW 1003,3 35 40 0,0
01.07.2020 12:00:00 19,6 15,8 23,1 21,1 17,2 17,9 21 11 35 19 S 1003,3 35 36 0,0
01.07.2020 11:00:00 18,6 15,2 21,2 20,1 16,6 17,9 16 9 29 16 SSW 1003,8 36 51 0,0
01.07.2020 10:00:00 17,9 15,1 21,0 18,0 16,2 17,9 16 8 28 15 SSW 1003,9 31 17 0,0
01.07.2020 09:00:00 16,4 14,7 17,7 17,0 15,9 17,9 15 8 26 14 S 1004,5 19 43 0,0
01.07.2020 08:00:00 15,2 14,4 15,7 15,3 15,8 18,0 15 8 22 12 S 1004,4 14 29 0,0
01.07.2020 07:00:00 15,0 13,7 14,4 14,7 15,9 18,0 9 5 16 9 S 1004,4 22 0 0,0
01.07.2020 06:00:00 15,1 13,7 14,1 14,2 16,0 18,0 11 6 22 12 WSW 1004,3 21 0 0,0
01.07.2020 05:00:00 14,8 13,8 13,5 14,2 16,1 18,0 13 7 27 15 SW 1004,6 18 0 0,0
01.07.2020 04:00:00 14,8 13,1 13,5 14,4 16,3 18,0 17 9 29 16 SW 1004,7 27 0 0,0
01.07.2020 03:00:00 14,8 13,2 13,5 14,6 16,5 18,1 18 10 29 15 SW 1004,8 31 0 0,0
01.07.2020 02:00:00 15,1 13,2 13,9 14,8 16,7 18,1 17 9 27 15 SW 1005,0 45 0 0,0
01.07.2020 01:00:00 14,9 12,9 13,6 15,0 16,9 18,1 16 9 32 18 SW 1005,1 42 0 0,0
01.07.2020 00:00:00 15,0 12,5 13,4 15,4 17,0 18,1 19 10 31 17 WSW 1005,1 42 0 0,0
30.06.2020 23:00:00 14,3 12,2 13,2 15,7 17,2 18,1 13 7 36 20 SW 1005,2 33 0 0,2
30.06.2020 22:00:00 14,3 12,9 13,6 16,1 17,4 18,2 21 12 34 19 WSW 1005,4 4,3 0 0,1
30.06.2020 21:00:00 16,0 11,9 15,6 16,4 17,5 18,2 20 11 36 20 SW 1005,1 35 0 0,0
30.06.2020 20:00:00 16,1 12,1 16,1 16,9 17,6 18,2 25 13 42 23 SW 1005,4 32 2 0,0
30.06.2020 19:00:00 16,4 11,9 16,5 17,1 17,6 18,2 24 13 48 26 WSW 1005,6 29 0 0,0
30.06.2020 18:00:00 16,3 12,2 16,5 17,2 17,7 18,3 27 15 52 28 WSW 1005,9 23 0 0,0
30.06.2020 17:00:00 16,6 12,2 16,9 17,5 17,7 18,3 32 17 51 28 WSW 1006,0 23 0 0,0
30.06.2020 16:00:00 16,3 11,7 17,0 17,4 17,7 18,3 31 17 51 28 WSW 1005,8 27 0 0,0
30.06.2020 15:00:00 15,8 12,3 16,4 18,1 17,5 18,3 34 19 55 30 SW 1005,6 36 0 0,0
30.06.2020 14:00:00 15,7 12,5 16,5 17,7 17,4 18,3 31 17 51 28 SW 1005,5 32 0 0,0
30.06.2020 13:00:00 15,6 12,6 16,6 17,6 17,3 18,3 32 17 53 29 SW 1005,3 30 0 0,0
30.06.2020 12:00:00 15,4 12,9 15,9 17,7 17,1 18,4 32 17 54 29 SW 1005,1 26 9 0,0
30.06.2020 11:00:00 15,2 12,8 15,6 16,5 17,0 18,4 31 17 50 27 SW 1004,8 36 3 0,0
30.06.2020 10:00:00 14,4 13,0 13,9 15,8 17,1 18,4 31 17 55 30 SW 1004,8 29 0 0,2
30.06.2020 09:00:00 14,0 13,1 13,6 15,6 17,2 18,4 26 14 44 24 SW 1004,6 8 0 0,3
30.06.2020 08:00:00 14,6 12,1 13,4 15,6 17,3 18,4 31 17 51 27 WSW 1004,3 23 0 0,0
30.06.2020 07:00:00 15,1 12,2 14,0 15,5 17,5 18,4 31 17 55 30 SW 1004,2 28 0 0,0
30.06.2020 06:00:00 15,2 12,0 13,8 15,6 17,7 18,4 31 17 55 30 SW 1004,3 16 0 0,0
30.06.2020 05:00:00 14,4 12,4 13,3 15,8 17,9 18,5 33 18 51 28 SW 1004,2 24 0 6,8
30.06.2020 04:00:00 15,0 13,1 13,9 16,1 18,2 18,5 26 14 49 27 SW 1004,6 8 0 0,2
30.06.2020 03:00:00 14,9 12,7 13,7 16,3 18,5 18,5 29 16 53 29 SW 1005,0 27 0 0,4
30.06.2020 02:00:00 14,7 13,0 13,7 16,6 18,8 18,5 29 15 51 28 SW 1005,4 18 0 0,3
30.06.2020 01:00:00 14,3 13,5 13,7 17,0 19,0 18,5 31 17 63 34 SW 1006,0 8 0 2,7
30.06.2020 00:00:00 16,2 11,5 15,3 17,5 19,3 18,6 29 16 51 28 SSW 1005,9 25 0 0,1
29.06.2020 23:00:00 14,6 12,7 13,7 18,3 19,6 18,6 37 20 59 32 SW 1007,0 5 0 0,1
29.06.2020 22:00:00 16,9 10,4 16,6 18,8 19,8 18,6 30 16 51 28 SW 1006,7 38 0 0,0
29.06.2020 21:00:00 16,7 10,6 16,5 19,2 20,0 18,6 33 18 57 31 SW 1006,9 32 0 0,0
29.06.2020 20:00:00 16,3 11,3 16,4 19,7 20,1 18,6 31 17 48 26 SW 1007,4 32 0 0,0
29.06.2020 19:00:00 16,2 11,3 16,7 20,3 20,3 18,7 30 16 56 30 SSW 1008,0 39 0 0,0
29.06.2020 18:00:00 17,0 10,1 17,0 20,8 20,3 18,7 33 18 56 30 SW 1008,2 32 0 0,0
29.06.2020 17:00:00 16,8 10,1 16,3 22,0 20,2 18,7 34 19 56 30 SW 1008,2 23 0 0,0
29.06.2020 16:00:00 18,4 8,4 20,2 22,8 19,8 18,7 34 18 53 28 SW 1008,4 52 5 0,0
29.06.2020 15:00:00 18,7 8,6 20,9 22,2 19,4 18,7 29 16 54 29 SW 1008,8 62 31 0,0
29.06.2020 14:00:00 17,7 10,0 18,2 20,9 19,2 18,8 34 18 54 29 SW 1008,7 41 6 0,0
29.06.2020 13:00:00 17,8 9,9 19,6 21,0 18,9 18,8 23 13 46 25 SW 1008,9 40 2 0,0
29.06.2020 12:00:00 17,9 9,9 21,7 21,3 18,4 18,8 24 13 50 27 SSW 1008,8 56 36 0,0

tt = temperature
td = dewpoint
tt 5cm = temperature 5cm
tt -5cm = temperature -5cm
tt -20cm = temperature -20cm
tt -100cm = temperature -100cm
ff = wind speed
fx = gusts
dd = wind direction
ppp = reduced air pressure
vv = visibility
sd = sunshine duration
rr = precipitation

Next stations